TimeEDT,TemperatureF,Dew PointF,Humidity,Sea Level PressureIn,VisibilityMPH,Wind Direction,Wind SpeedMPH,Gust SpeedMPH,PrecipitationIn,Events,Conditions,WindDirDegrees,DateUTC
12:15 AM,28.9,15.8,58,29.71,10.0,WSW,5.8,-,N/A,,Unknown,240,2013-03-21 04:15:00
12:35 AM,27.0,15.8,63,29.71,10.0,Calm,Calm,-,N/A,,Unknown,0,2013-03-21 04:35:00
12:55 AM,23.9,15.8,71,29.71,10.0,Calm,Calm,-,N/A,,Unknown,0,2013-03-21 04:55:00
1:15 AM,23.7,15.3,70,29.72,10.0,NNW,3.5,-,N/A,,Unknown,330,2013-03-21 05:15:00
1:35 AM,20.8,15.3,79,29.72,10.0,Calm,Calm,-,N/A,,Unknown,0,2013-03-21 05:35:00
1:55 AM,19.8,15.8,85,29.72,10.0,NE,3.5,-,N/A,,Unknown,40,2013-03-21 05:55:00
2:15 AM,19.8,15.3,83,29.73,10.0,Calm,Calm,-,N/A,,Unknown,0,2013-03-21 06:15:00
2:35 AM,18.1,14.9,87,29.72,10.0,Calm,Calm,-,N/A,,Unknown,0,2013-03-21 06:35:00
2:55 AM,20.7,16.3,83,29.72,10.0,Calm,Calm,-,N/A,,Unknown,0,2013-03-21 06:55:00
3:15 AM,20.7,14.2,76,29.72,10.0,Calm,Calm,-,N/A,,Unknown,0,2013-03-21 07:15:00
3:35 AM,21.6,14.5,74,29.72,10.0,WNW,5.8,-,N/A,,Unknown,290,2013-03-21 07:35:00
3:55 AM,19.9,13.8,77,29.71,10.0,NW,4.6,-,N/A,,Unknown,320,2013-03-21 07:55:00
4:15 AM,19.6,14.9,82,29.72,10.0,West,3.5,-,N/A,,Unknown,280,2013-03-21 08:15:00
4:35 AM,14.7,11.1,86,29.72,10.0,Calm,Calm,-,N/A,,Unknown,0,2013-03-21 08:35:00
5:15 AM,15.6,14.2,94,29.72,10.0,Calm,Calm,-,N/A,,Unknown,0,2013-03-21 09:15:00
5:35 AM,12.0,10.4,93,29.72,10.0,Calm,Calm,-,N/A,,Unknown,0,2013-03-21 09:35:00
5:55 AM,10.6,8.8,92,29.71,10.0,East,3.5,-,N/A,,Unknown,80,2013-03-21 09:55:00
6:15 AM,10.9,8.8,91,29.72,10.0,Calm,Calm,-,N/A,,Unknown,0,2013-03-21 10:15:00
6:35 AM,9.9,7.9,92,29.72,10.0,Calm,Calm,-,N/A,,Unknown,0,2013-03-21 10:35:00
6:55 AM,9.3,7.3,92,29.72,10.0,East,3.5,-,N/A,,Unknown,90,2013-03-21 10:55:00
7:15 AM,10.0,8.2,92,29.73,10.0,Calm,Calm,-,N/A,,Unknown,0,2013-03-21 11:15:00
7:35 AM,9.3,7.2,91,29.74,10.0,Calm,Calm,-,N/A,,Unknown,0,2013-03-21 11:35:00
7:55 AM,9.9,7.9,92,29.74,10.0,Calm,Calm,-,N/A,,Unknown,0,2013-03-21 11:55:00
8:15 AM,11.7,9.7,92,29.74,10.0,Calm,Calm,-,N/A,,Unknown,0,2013-03-21 12:15:00
8:35 AM,15.1,13.5,93,29.74,10.0,Calm,Calm,-,N/A,,Unknown,0,2013-03-21 12:35:00
8:55 AM,16.2,14.4,93,29.74,10.0,Calm,Calm,-,N/A,,Unknown,0,2013-03-21 12:55:00
9:15 AM,20.1,17.4,89,29.74,10.0,Calm,Calm,-,N/A,,Unknown,0,2013-03-21 13:15:00
9:35 AM,22.3,15.8,76,29.74,10.0,Calm,Calm,-,N/A,,Unknown,0,2013-03-21 13:35:00
9:55 AM,27.0,15.8,63,29.73,10.0,WNW,4.6,-,N/A,,Unknown,290,2013-03-21 13:55:00
10:35 AM,30.0,14.5,53,29.72,10.0,NW,6.9,-,N/A,,Unknown,310,2013-03-21 14:35:00
10:55 AM,30.7,13.6,49,29.71,10.0,WNW,6.9,-,N/A,,Unknown,290,2013-03-21 14:55:00
11:15 AM,31.5,12.4,45,29.71,10.0,WNW,6.9,-,N/A,,Unknown,300,2013-03-21 15:15:00
11:35 AM,32.0,11.5,43,29.69,10.0,WNW,10.4,-,N/A,,Unknown,300,2013-03-21 15:35:00
12:15 PM,32.9,8.6,36,29.67,10.0,NW,8.1,17.3,N/A,,Unknown,310,2013-03-21 16:15:00
12:35 PM,33.6,9.5,37,29.67,10.0,NW,8.1,-,N/A,,Unknown,310,2013-03-21 16:35:00
12:55 PM,34.0,9.0,35,29.67,10.0,West,8.1,16.1,N/A,,Unknown,260,2013-03-21 16:55:00
1:15 PM,34.0,9.1,36,29.66,10.0,NW,6.9,-,N/A,,Unknown,320,2013-03-21 17:15:00
1:35 PM,34.7,8.6,34,29.66,10.0,WNW,4.6,-,N/A,,Unknown,300,2013-03-21 17:35:00
1:55 PM,35.6,8.2,32,29.64,10.0,NW,6.9,-,N/A,,Unknown,320,2013-03-21 17:55:00
2:15 PM,36.0,7.9,31,29.63,10.0,Calm,Calm,-,N/A,,Unknown,0,2013-03-21 18:15:00
2:35 PM,36.5,8.8,32,29.62,10.0,WNW,8.1,-,N/A,,Unknown,290,2013-03-21 18:35:00
2:55 PM,36.5,7.2,30,29.62,10.0,WNW,4.6,-,N/A,,Unknown,290,2013-03-21 18:55:00
3:15 PM,36.7,7.2,29,29.61,10.0,NW,6.9,-,N/A,,Unknown,320,2013-03-21 19:15:00
3:35 PM,36.9,5.7,27,29.60,10.0,Calm,Calm,-,N/A,,Unknown,0,2013-03-21 19:35:00
3:55 PM,37.2,6.4,28,29.59,10.0,NW,6.9,-,N/A,,Unknown,310,2013-03-21 19:55:00
4:15 PM,37.8,5.5,26,29.59,10.0,WNW,3.5,-,N/A,,Unknown,300,2013-03-21 20:15:00
4:35 PM,37.2,6.6,28,29.58,10.0,WNW,5.8,-,N/A,,Unknown,290,2013-03-21 20:35:00
4:55 PM,37.4,5.9,27,29.58,10.0,North,3.5,-,N/A,,Unknown,350,2013-03-21 20:55:00
5:15 PM,37.4,5.4,26,29.58,10.0,WNW,6.9,-,N/A,,Unknown,300,2013-03-21 21:15:00
5:35 PM,37.4,5.7,27,29.58,10.0,West,8.1,-,N/A,,Unknown,270,2013-03-21 21:35:00
5:55 PM,37.4,5.0,26,29.58,10.0,NW,5.8,-,N/A,,Unknown,310,2013-03-21 21:55:00
6:15 PM,36.5,5.2,27,29.58,10.0,NW,6.9,-,N/A,,Unknown,310,2013-03-21 22:15:00
6:35 PM,36.0,4.8,27,29.58,10.0,West,5.8,-,N/A,,Unknown,280,2013-03-21 22:35:00
6:55 PM,35.6,5.0,28,29.59,10.0,West,5.8,-,N/A,,Unknown,270,2013-03-21 22:55:00
7:15 PM,34.0,6.4,32,29.59,10.0,West,4.6,-,N/A,,Unknown,280,2013-03-21 23:15:00
7:35 PM,31.8,12.9,46,29.60,10.0,West,4.6,-,N/A,,Unknown,260,2013-03-21 23:35:00
7:55 PM,31.8,11.8,44,29.60,10.0,West,4.6,-,N/A,,Unknown,260,2013-03-21 23:55:00
8:15 PM,31.3,11.7,44,29.60,10.0,West,5.8,-,N/A,,Unknown,280,2013-03-22 00:15:00
8:35 PM,31.6,11.7,44,29.61,10.0,West,5.8,-,N/A,,Unknown,280,2013-03-22 00:35:00
8:55 PM,31.8,11.5,43,29.61,10.0,West,5.8,-,N/A,,Unknown,280,2013-03-22 00:55:00
9:35 PM,30.7,12.2,46,29.61,10.0,WSW,4.6,-,N/A,,Unknown,250,2013-03-22 01:35:00
9:55 PM,30.9,12.4,46,29.61,10.0,West,5.8,-,N/A,,Unknown,280,2013-03-22 01:55:00
10:15 PM,30.4,12.7,48,29.61,10.0,West,5.8,-,N/A,,Unknown,260,2013-03-22 02:15:00
10:35 PM,29.5,13.1,51,29.61,10.0,WSW,3.5,-,N/A,,Unknown,250,2013-03-22 02:35:00
10:55 PM,28.9,13.1,52,29.61,10.0,Calm,Calm,-,N/A,,Unknown,0,2013-03-22 02:55:00
11:35 PM,28.0,13.1,54,29.61,10.0,WNW,3.5,-,N/A,,Unknown,290,2013-03-22 03:35:00